FENGYUN 1C DEB

Satellite information

Favourite Embed

Satellite Type and Status

DEBRISIN ORBIT

Key statistics

Satellite FENGYUN 1C DEB at a glance.

Uptime

9556

Days in orbit

Revolutions

≈ 14.3

Per day

Orbit

SSO

Sun Synchronous Orbit

Inclination

98.8

Latest

Satellite identification and parameters

Extended collection of information and parameters for FENGYUN 1C DEB.

Object identification

Identified? True

Debris? True

Object name: FENGYUN 1C DEB

International designator: 1999-025AQH

Object number (NORAD): 30675

Object ID (CCSDS): 30675

Country: PEOPLES REPUBLIC OF CHINA (PRC)

Current information (Y/N): Y

RCS size: SMALL

Orbital parameters

Period: 100.982 minutes

Inclination: 98.7622 deg

SMA: 7183.304 km

Apoapsis: 842.228 km

Periapsis: 768.11 km

RAAN: 266.8222 deg

Eccentricy: 0.0051591

Argument of periapsis: 268.7898 deg

Mean anomaly: 216.6501 deg

Mean motion: 14.25989741 rev/day

Mean motion (dot): 0.00002539 rev/day2

B* drag term: 0.0010679 1/REarth

Two-line elements (TLE)

Creation date: July 6, 2025, 10:36 p.m.

Reference frame: TEME

Reference center: EARTH

Epoch: July 6, 2025, 6:45 p.m. UTC

TLE line 0: 0 FENGYUN 1C DEB

TLE line 1: 1 30675U 99025AQH 25187.78137088 .00002539 00000-0 10679-2 0 9995

TLE line 2: 2 30675 98.7622 266.8222 0051591 268.7898 216.6501 14.25989741946587

Live tracking on map

Real-time ground track for satellite FENGYUN 1C DEB.

In-orbit conjunctions

A list of the most updated potential collisions computed for object FENGYUN 1C DEB.

Target Orbit TCA Probability of collision Miss distance Type
CZ-6A DEB LEO 2025-02-13 22:18:57 0.001213738 357.0 (m) DEBRIS
CZ-6A DEB LEO 2025-01-21 22:58:36 0.0001028592 77.0 (m) DEBRIS

Associated space launch

Chinese polar orbiting meteorological satellite

FENGYUN 1C DEB was lifted into orbit during the mission ‘Long March 4B | Feng Yun 1C’, on board a Long March 4B space rocket.

The launch took place on May 10, 1999, 1:33 a.m. from Launch Complex 7.

For more information about the launch, click the button.

Launch to space Long March 4B | Feng Yun 1C
Long March 4B | Feng Yun 1C

Agency: N/A

Status: Launch Successful

Launch date: May 10, 1999, 1:33 a.m. UTC

Rocket: Long March 4B

Launch pad: Launch Complex 7

Location: Taiyuan Satellite Launch Center, People's Republic of China

...

Latest news about this satellite

There are no fresh news available about this satellite. Check back as we update our databases every day.


Newsletter sign-up

Weekly statistics, charts and insights to help you stay on top of the space industry.